sat.trackr.live / text

‹ back to catalog

STARLINK-36138

NORAD 67030 · 2025-294A

PAYLOAD ACTIVE UNKNOWN

§ Identity

Operator
Country
US
Launch date
2025-12-11
Launch site
AFETR
Launch vehicle
Mass (kg)
RCS (m²)

Purposes: comms

External: N2YO · Heavens-Above · Gunter

§ Orbital elements

Epoch: 2026-09-20T09:10:15.322656Z

Period
94.27 min
Inclination
43.0004°
Eccentricity
0.0001250
Mean motion
15.27584612 rev/d
Perigee alt
482.2 km
Apogee alt
483.9 km
Semi-major
6,861.2 km
B*
3.8570e-4
RAAN
18.6637°
Arg perigee
245.2397°
Mean anomaly
114.8324°
Rev number
4,457

§ Raw data

STARLINK-361381 67030U 25294A   26263.38212179  .00010368  00000+0  38570-3 0  99932 67030  43.0004  18.6637 0001250 245.2397 114.8324 15.27584612 44574

JSON: /api/v1/satellites/67030 · /tle

For live sub-satellite position, see the globe view (requires WebGL).

§ Visibility from observer

Set your observer location to see the next 7 days of passes ≥ 10°. The values pass through the URL so the page stays shareable.

No JS? Fill the form by hand. The geolocation button needs JavaScript.